カタログに戻る

STARLINK-35714

運用中通信VLEO
NORAD 66214·PAYLOAD·🇺🇸 United States

打ち上げ Oct 28, 2025 から Vandenberg Space Force Base

Loading…

次のパス (今後24時間)

TLE

最新Source: CelesTrak SupGP

元期: Sep 14, 2026, 23:07 UTC

1 66214C 25244J   26257.96368056  .00039398  00000+0  11643-2 0  2576
2 66214  53.1587  69.2718 0001279  87.1360 111.0312 15.34363881    19

AllMySatでSTARLINK-35714をリアルタイム追跡

Download on the App Store